Forrest,

5:01 AM AWST on December 19, 2017 (GMT +0800)
Forrest

Weather History for YFRT - January, 2014

Change the Weather History Date:

Thursday, January 9, 2014

  Actual Average Record
Temperature  
Mean Temperature 80 °F -  
Max Temperature 101 °F - - ()
Min Temperature 60 °F - - ()
Cooling Degree Days 16    
Growing Degree Days 30 (Base 50)    
Moisture  
Dew Point 39 °F    
Average Humidity 28    
Maximum Humidity 59    
Minimum Humidity 4    
Precipitation  
Precipitation 0.00 in - - ()
Sea Level Pressure  
Sea Level Pressure 29.90 in    
Wind  
Wind Speed 10 mph ()    
Max Wind Speed 22 mph    
Max Gust Speed -    
T = Trace of Precipitation, MM = Missing Value Source: Averaged Metar Reports

Daily Weather History Graph

Daily Weather History Graph

Search for Another Location

Airport or City:

Trip Planner

Search our weather history database for the weather conditions in past years. The results will help you decide how hot, cold, wet, or windy it might be!

Date:

Astronomy

Jan. 09, 2014 Rise Set
Actual Time 4:33 AM AWST 6:34 PM AWST
Civil Twilight 4:06 AM AWST 7:02 PM AWST
Nautical Twilight 3:33 AM AWST 7:35 PM AWST
Astronomical Twilight 2:57 AM AWST 8:10 PM AWST
Moon 12:39 PM AWST (1/9) 11:56 PM AWST (1/9)
Length of Visible Light 14h 55m
Length of Day
14h 01m
First Quarter, 60% of the Moon is Illuminated
Jan 9
First Quarter
Jan 16
Full
Jan 24
Last Quarter
Jan 31
New
Feb 7
First Quarter

Hourly Weather History & Observations

Time (AWST) Temp. Dew Point Humidity Pressure Visibility Wind Dir Wind Speed Gust Speed Precip Events Conditions
12:00 AM 68 °F 45 °F 32% 29.91 in - East 11.5 mph - -  
12:00 AM 68.0 °F 44.6 °F 43% 29.92 in - East 11.5 mph - N/A   Unknown
12:30 AM 66.2 °F 44.6 °F 46% 29.92 in - East 10.4 mph - N/A   Unknown
1:00 AM 66.2 °F 44.6 °F 46% 29.92 in - East 10.4 mph - N/A   Unknown
1:30 AM 64.4 °F 44.6 °F 49% 29.92 in - East 9.2 mph - N/A   Unknown
2:00 AM 65 °F 46 °F 38% 29.90 in - East 11.5 mph - -  
2:00 AM 64.4 °F 46.4 °F 52% 29.92 in - East 11.5 mph - N/A   Unknown
2:30 AM 64.4 °F 44.6 °F 49% 29.92 in - East 10.4 mph - N/A   Unknown
3:00 AM 63 °F 46 °F 42% 29.90 in - East 8.1 mph - -  
3:00 AM 62.6 °F 46.4 °F 55% 29.92 in - East 8.1 mph - N/A   Unknown
3:30 AM 62.6 °F 46.4 °F 55% 29.92 in - East 8.1 mph - N/A   Unknown
4:00 AM 60.8 °F 46.4 °F 59% 29.92 in - East 8.1 mph - N/A   Unknown
4:30 AM 60.8 °F 46.4 °F 59% 29.92 in - East 8.1 mph - N/A   Unknown
5:00 AM 62 °F 47 °F 46% 29.92 in - East 9.2 mph - -  
5:00 AM 62.6 °F 46.4 °F 55% 29.92 in - East 9.2 mph - N/A   Unknown
5:30 AM 64.4 °F 48.2 °F 56% 29.95 in - East 10.4 mph - N/A   Unknown
6:00 AM 68 °F 47 °F 35% 29.93 in - ENE 15.0 mph - -  
6:00 AM 68.0 °F 46.4 °F 46% 29.95 in - ENE 15.0 mph - N/A   Unknown
6:30 AM 73.4 °F 46.4 °F 38% 29.95 in - ENE 15.0 mph - N/A   Unknown
7:00 AM 77.0 °F 44.6 °F 32% 29.95 in - NE 13.8 mph - N/A   Unknown
7:30 AM 80.6 °F 44.6 °F 28% 29.95 in - NE 13.8 mph - N/A   Unknown
8:00 AM 82 °F 43 °F 15% 29.94 in - NNE 12.7 mph - -  
8:00 AM 82.4 °F 42.8 °F 25% 29.95 in - NNE 12.7 mph - N/A   Unknown
8:30 AM 84.2 °F 41.0 °F 22% 29.95 in - NE 12.7 mph - N/A   Unknown
9:00 AM 87 °F 39 °F 10% 29.94 in - NE 10.4 mph - -  
9:00 AM 87.8 °F 39.2 °F 18% 29.95 in - NE 10.4 mph - N/A   Unknown
9:30 AM 89.6 °F 33.8 °F 14% 29.95 in - NNE 10.4 mph - N/A   Unknown
10:00 AM 91.4 °F 32.0 °F 12% 29.95 in - NE 8.1 mph - N/A   Unknown
10:30 AM 93.2 °F 28.4 °F 10% 29.92 in - NNE 4.6 mph - N/A   Unknown
11:00 AM 94 °F 24 °F 4% 29.91 in - SE 4.6 mph - -  
11:00 AM 95.0 °F 24.8 °F 8% 29.92 in - SE 4.6 mph - N/A   Unknown
11:30 AM 96.8 °F 23.0 °F 7% 29.92 in - ENE 4.6 mph - N/A   Unknown
12:00 PM 98 °F 20 °F 4% 29.88 in - ENE 6.9 mph - -  
12:00 PM 96.8 °F 19.4 °F 6% 29.89 in - ENE 6.9 mph - N/A   Unknown
12:30 PM 96.8 °F 19.4 °F 6% 29.89 in - North 4.6 mph - N/A   Unknown
1:00 PM 98.6 °F 19.4 °F 6% 29.86 in - South 9.2 mph - N/A   Unknown
1:30 PM 98.6 °F 19.4 °F 6% 29.86 in - SE 4.6 mph - N/A   Unknown
2:00 PM 100 °F 21 °F 4% 29.84 in - SE 11.5 mph - -  
2:00 PM 100.4 °F 21.2 °F 6% 29.86 in - SE 11.5 mph - N/A   Unknown
2:30 PM 100.4 °F 21.2 °F 6% 29.83 in - SSW 10.4 mph - N/A   Unknown
3:00 PM 101 °F 22 °F 4% 29.82 in - ESE 6.9 mph - -  
3:00 PM 100.4 °F 21.2 °F 6% 29.83 in - ESE 6.9 mph - N/A   Unknown
3:30 PM 100.4 °F 21.2 °F 6% 29.83 in - SE 10.4 mph - N/A   Unknown
4:00 PM 100.4 °F 24.8 °F 7% 29.83 in - ESE 10.4 mph - N/A   Unknown
4:30 PM 100.4 °F 24.8 °F 7% 29.83 in - SE 8.1 mph - N/A   Unknown
4:59 PM 96.8 °F 42.8 °F 16% 29.83 in - SE 21.9 mph - N/A   Unknown
5:00 PM 97 °F 45 °F 9% 29.82 in - SE 21.9 mph - -  
5:00 PM 96.8 °F 44.6 °F 17% 29.83 in - SE 21.9 mph - N/A   Unknown
5:30 PM 93.2 °F 46.4 °F 20% 29.86 in - SE 20.7 mph - N/A   Unknown
6:00 PM 89 °F 44 °F 12% 29.86 in - SE 19.6 mph - -  
6:00 PM 89.6 °F 44.6 °F 21% 29.86 in - SE 19.6 mph - N/A   Unknown
6:30 PM 86.0 °F 44.6 °F 23% 29.89 in - SE 15.0 mph - N/A   Unknown
7:00 PM 82.4 °F 46.4 °F 28% 29.89 in - SE 16.1 mph - N/A   Unknown
7:30 PM 80.6 °F 46.4 °F 30% 29.92 in - SE 18.4 mph - N/A   Unknown
8:00 PM 78 °F 48 °F 24% 29.91 in - ESE 16.1 mph - -  
8:00 PM 78.8 °F 48.2 °F 34% 29.92 in - ESE 16.1 mph - N/A   Unknown
8:30 PM 77.0 °F 50.0 °F 39% 29.95 in - ESE 15.0 mph - N/A   Unknown
9:00 PM 76 °F 50 °F 29% 29.92 in - ESE 12.7 mph - -  
9:00 PM 75.2 °F 50.0 °F 41% 29.92 in - ESE 12.7 mph - N/A   Unknown
9:30 PM 75.2 °F 50.0 °F 41% 29.95 in - ESE 12.7 mph - N/A   Unknown
10:00 PM 73.4 °F 50.0 °F 44% 29.95 in - ESE 10.4 mph - N/A   Unknown
10:30 PM 71.6 °F 51.8 °F 50% 29.95 in - ESE 8.1 mph - N/A   Unknown
11:00 PM 71 °F 51 °F 38% 29.92 in - ESE 9.2 mph - -  
11:00 PM 71.6 °F 51.8 °F 50% 29.92 in - ESE 9.2 mph - N/A   Unknown
11:30 PM 69.8 °F 51.8 °F 53% 29.92 in - SE 9.2 mph - N/A   Unknown